"Pseudo-MPEC" for 6EA3I21

Created 2026 May 12 6:35:02 UT using Find_Orb

Click here for an explanation of pseudo-MPECs

 
 Astrometry: 
     6EA3I21*KC2026 05 11.31713 19 25 45.81 -05 24 00.0    ~5B95 16.6 GVNEOCPW94
     6EA3I21 KC2026 05 11.32333 19 25 45.82 -05 23 54.8    ~5B95 16.7 GVNEOCPW94
     6EA3I21 KC2026 05 11.32955 19 25 45.86 -05 23 50.6    ~5B95 16.9 GVNEOCPW94

Station data:
(W94) AMACS1, San Pedro de Atacama  (S22.953074 W68.179810)  Chile.  Observers
   A. Maury, G. Attard. Measurers A. Maury, G. Attard, D. Parrott. 0.28-m
   f/2.2 Schmidt + CCD.

Orbital elements:  6EA3I21
   Perihelion 2026 Jan 25.276433 +/- 143 TT =  6:38:03.8 (JD 2461065.776433)
Epoch 2026 May 11.0 TT = JDT 2461171.5   Earth MOID: 0.3724   Ju: 0.1269
M  13.969657817 +/- 70              (J2000 ecliptic)             AutoNEOCP
n   0.132133811 +/- 0.339           Peri.  340.134624 +/- 80
a   3.817626244 +/- 6.54            Node   214.538464 +/- 70
e   0.64223641 +/- 0.26             Incl.   13.434333 +/- 34
P   7.45916                H 14.18  G  0.15   U 12.0  SR
q 1.365807661 +/- 1.02    Q 6.269444827 +/- 37.8
From 3 observations 2026 May 11 (17.9 min); mean residual 0".19
Residuals in arcseconds: 
260511 W94  .08+  .17-    260511 W94  .15-  .34+    260511 W94  .07+  .17-    

Ephemerides (geocentric):
Date (UTC) HH   RA             Dec           delta  r     elong  mag " sig PA
---- --------  ------------   ------------  ------ ------ -----  --- --------
2026 05 12 07  19 25 51.289   -05 11 48.53  1.1194 1.8220 117.6 17.0  18d  93
2026 05 12 08  19 25 51.476   -05 11 17.37  1.1193 1.8223 117.6 17.0  18d  93
2026 05 12 09  19 25 51.659   -05 10 46.23  1.1192 1.8226 117.6 17.0  18d  87
2026 05 12 10  19 25 51.838   -05 10 15.10  1.1192 1.8228 117.7 17.0  18d  87
2026 05 12 11  19 25 52.012   -05 09 43.99  1.1191 1.8231 117.7 17.0  18d  87
2026 05 12 12  19 25 52.181   -05 09 12.90  1.1190 1.8234 117.7 17.0  18d  87
2026 05 12 13  19 25 52.347   -05 08 41.83  1.1190 1.8237 117.8 17.0  18d  87
2026 05 12 14  19 25 52.508   -05 08 10.77  1.1189 1.8240 117.8 17.0  18d  87
2026 05 12 15  19 25 52.664   -05 07 39.73  1.1189 1.8243 117.8 17.0  18d  87
2026 05 12 16  19 25 52.816   -05 07 08.71  1.1188 1.8246 117.9 17.0  18d  87
2026 05 12 17  19 25 52.964   -05 06 37.70  1.1187 1.8248 117.9 17.0  18d  87
2026 05 12 18  19 25 53.108   -05 06 06.71  1.1187 1.8251 117.9 17.0  18d  87
2026 05 12 19  19 25 53.247   -05 05 35.74  1.1186 1.8254 118.0 17.0  18d  88
2026 05 12 20  19 25 53.382   -05 05 04.79  1.1185 1.8257 118.0 17.0  23d  92
2026 05 12 21  19 25 53.512   -05 04 33.86  1.1185 1.8260 118.0 17.0  24d  91
2026 05 12 22  19 25 53.638   -05 04 02.94  1.1184 1.8263 118.1 17.0  25d  91
2026 05 12 23  19 25 53.760   -05 03 32.04  1.1184 1.8266 118.1 17.0  25d  90
2026 05 13 00  19 25 53.877   -05 03 01.16  1.1183 1.8269 118.2 17.0  25d  90
2026 05 13 01  19 25 53.990   -05 02 30.29  1.1182 1.8271 118.2 17.0  25d  90
2026 05 13 02  19 25 54.099   -05 01 59.45  1.1182 1.8274 118.2 17.0  25d  90
2026 05 13 03  19 25 54.203   -05 01 28.62  1.1181 1.8277 118.3 17.0  25d  90
2026 05 13 04  19 25 54.303   -05 00 57.81  1.1181 1.8280 118.3 17.0  25d  90
2026 05 13 05  19 25 54.399   -05 00 27.02  1.1180 1.8283 118.3 17.0  25d  90
2026 05 13 06  19 25 54.490   -04 59 56.24  1.1179 1.8286 118.4 17.0  25d  90
2026 05 13 07  19 25 54.577   -04 59 25.48  1.1179 1.8289 118.4 17.0  25d  90
2026 05 13 08  19 25 54.660   -04 58 54.74  1.1178 1.8292 118.4 17.0  25d  90
2026 05 13 09  19 25 54.738   -04 58 24.02  1.1178 1.8294 118.5 17.0  25d  90
2026 05 13 10  19 25 54.812   -04 57 53.32  1.1177 1.8297 118.5 17.0  25d  90
2026 05 13 11  19 25 54.881   -04 57 22.63  1.1176 1.8300 118.5 17.0  25d  90
2026 05 13 12  19 25 54.946   -04 56 51.97  1.1176 1.8303 118.6 17.0  25d  90
2026 05 13 13  19 25 55.007   -04 56 21.32  1.1175 1.8306 118.6 17.0  25d  90
2026 05 13 14  19 25 55.064   -04 55 50.68  1.1175 1.8309 118.6 17.0  25d  90
2026 05 13 15  19 25 55.116   -04 55 20.07  1.1174 1.8312 118.7 17.0  25d  90
2026 05 13 16  19 25 55.164   -04 54 49.48  1.1173 1.8315 118.7 17.0  25d  90
2026 05 13 17  19 25 55.207   -04 54 18.90  1.1173 1.8317 118.7 17.0  25d  90
2026 05 13 18  19 25 55.246   -04 53 48.34  1.1172 1.8320 118.8 17.0  25d  90
2026 05 13 19  19 25 55.281   -04 53 17.80  1.1172 1.8323 118.8 17.0  25d  90
2026 05 13 20  19 25 55.312   -04 52 47.28  1.1171 1.8326 118.9 17.0  25d  90
2026 05 13 21  19 25 55.338   -04 52 16.77  1.1171 1.8329 118.9 17.0  25d  90
2026 05 13 22  19 25 55.360   -04 51 46.29  1.1170 1.8332 118.9 17.0  25d  90
2026 05 13 23  19 25 55.377   -04 51 15.82  1.1169 1.8335 119.0 17.0  25d  90
2026 05 14 00  19 25 55.390   -04 50 45.37  1.1169 1.8338 119.0 17.0  25d  90
2026 05 14 01  19 25 55.399   -04 50 14.94  1.1168 1.8341 119.0 17.0  26d  91
2026 05 14 02  19 25 55.403   -04 49 44.53  1.1168 1.8343 119.1 17.0  28d  95
2026 05 14 03  19 25 55.404   -04 49 14.13  1.1167 1.8346 119.1 17.0  30d  93
2026 05 14 04  19 25 55.399   -04 48 43.76  1.1167 1.8349 119.1 17.0  30d  93
2026 05 14 05  19 25 55.391   -04 48 13.40  1.1166 1.8352 119.2 17.0  30d  92
2026 05 14 06  19 25 55.378   -04 47 43.06  1.1165 1.8355 119.2 17.0  30d  92